This demonstration page uses our WeatherBlox Daily Observations layout. Learn more.

Left ArrowRight Arrow

47.50024, -111.30081

Hourly Observations for October 12, 2019

Temp ( °F °C ) Dew Point ( °F °C ) Humidity (%) Winds ( mph kmh ) Pressure ( in mb ) Visibility ( mi km ) Precip ( " mm )
12:53 am 00:53 Clear 24 -4.4 17 -8.3 75 75 SSW 8 13 30.23 1024 10 16 0.00 0.00
1:53 am 01:53 Clear 24 -4.4 17 -8.3 75 75 SSW 8 13 30.22 1023 10 16 0.00 0.00
2:53 am 02:53 Clear 27 -2.8 18 -7.8 69 69 SSW 10 17 30.19 1022 10 16 0.00 0.00
3:53 am 03:53 Clear 29 -1.7 19 -7.2 66 66 SSW 13 20 30.15 1021 10 16 0.00 0.00
4:53 am 04:53 Clear 28 -2.2 19 -7.2 69 69 SSW 10 17 30.13 1020 10 16 0.00 0.00
5:53 am 05:53 Clear 28 -2.2 18 -7.8 66 66 SSW 12 19 30.12 1020 10 16 0.00 0.00
6:53 am 06:53 Clear 26 -3.3 17 -8.3 69 69 SSW 8 13 30.14 1021 10 16 0.00 0.00
7:53 am 07:53 Sunny 26 -3.3 17 -8.3 69 69 SSW 8 13 30.14 1021 10 16 0.00 0.00
8:53 am 08:53 Sunny 34 1.1 21 -6.1 59 59 SSW 13 20 30.11 1020 10 16 0.00 0.00
9:53 am 09:53 Sunny 38 3.3 22 -5.6 52 52 SSW 13 20 30.09 1019 10 16 0.00 0.00
10:53 am 10:53 Sunny 41 5 23 -5 49 49 SSW 13 20 30.09 1019 10 16 0.00 0.00
11:53 am 11:53 Sunny 43 6.1 24 -4.4 47 47 SSW 14 22 30.09 1019 10 16 0.00 0.00
12:53 pm 12:53 Sunny 46 7.8 25 -3.9 44 44 SSW 12 19 30.06 1018 10 16 0.00 0.00
1:53 pm 13:53 Sunny 48 8.9 26 -3.3 42 42 SSW 12 19 30.04 1017 10 16 0.00 0.00
2:53 pm 14:53 Sunny 50 10 26 -3.3 39 39 SSW 12 19 30.01 1016 10 16 0.00 0.00
4:53 pm 16:53 Sunny 52 11.1 27 -2.8 38 38 SW 8 13 29.98 1015 10 16 0.00 0.00
5:53 pm 17:53 Sunny 49 9.4 29 -1.7 46 46 SSW 7 11 29.98 1015 10 16 0.00 0.00
6:53 pm 18:53 Clear 44 6.7 25 -3.9 47 47 S 5 7 30.00 1016 10 16 0.00 0.00
7:53 pm 19:53 Clear 41 5 26 -3.3 55 55 S 7 11 30.00 1016 10 16 0.00 0.00
8:53 pm 20:53 Clear 40 4.4 25 -3.9 55 55 S 7 11 29.98 1015 10 16 0.00 0.00
9:53 pm 21:53 Clear 36 2.2 25 -3.9 64 64 SSW 9 15 29.98 1015 10 16 0.00 0.00
10:53 pm 22:53 Clear 37 2.8 25 -3.9 62 62 SSW 9 15 29.96 1015 10 16 0.00 0.00
11:53 pm 23:53 Clear 37 2.8 25 -3.9 62 62 SSW 13 20 29.95 1014 10 16 0.00 0.00

Powered by AerisWeather